STARLINK-2457, 48321

Orbit data source: Space-Track

STARLINK-2457, 48321 is a payload satellite owned by SpaceX/Seattle (US) in LEO that was launched on Thu, 29 Apr 2021 UTC via an FALCON 9 launch vehicle from the Air Force Eastern Test Range (AFETR). Payload-class satellites include a variety of spacecraft equipped with specific instruments for various scientific and technological missions. These include communications satellites like Starlink; space stations such as the ISS; scientific satellites like the Hubble; Earth observation satellites from companies like Planet Labs, Umbra, and HawkEye 360; GPS; miniature CubeSats for education and research; and military/defense satellites.

Loading next visibility...
Identifier
48321, 2021-036AX
Orbit
LEO
Country
Flag of USUS
Related business
Manufacturer
SpaceX/Seattle
Mission
Operational Commercial Communications
Bus & Motor
STARLINK, Unknown motor
Mass
260 kg wet, ~248 kg dry
Launch date (UTC)
2021-04-29 (5 years ago)
Launch vehicle
FALCON 9
Launch site
Air Force Eastern Test Range (AFETR)
Object type
Payload
Rocket body
Debris
Shape & HBR
Box + 1 Pan, 10.1 m
Radar Cross Section
13.562 m², Large (>1 m²)

Expand to show TLE details & history
Last TLE update: 21 hours ago

TLE from 21 hours ago
0 STARLINK-2457
1 48321U 21036AX  26036.80178300  .00025232  00000-0  17093-2 0  9990
2 48321  53.0536 244.7717 0002213  88.7008 271.4234 15.06343798263227
Epoch: 2026-02-05T19:14Z
TLE epoch observation values (Epoch: 2026-02-05T19:14:34.051Z)
Latitude
-0.00004°
Longitude
-179.819°
Altitude
548.225 km
Speed
7.589 km/s
True Right ascension
16h 19m 05s
True Declination
0° 00' 00"
Sunlit
Object was in daylight at epoch
Visualization orbit readout
Latitude
Unknown
Longitude
Unknown
Altitude
Unknown
Speed
Unknown
Apparent Right ascension
Unknown
Apparent Declination
Unknown
Sunlit
N/A
Visualization observer readout
Local Sidereal Time
18:09:04
Azimuth
Unknown
Elevation
Unknown
Doppler factor
Unknown
Orbital elements
Apogee altitude
549.187 km
Perigee altitude
546.122 km
Semi-major axis
6,925.792 km
Eccentricity
0.00022
Inclination
53.0536°
RAAN
244.7717°
Arg. of periapsis
88.7008°
True anomaly
271.39805°
Mean anomaly
271.4234°
Eccentric anomaly
271.41072°
Mean motion
3.76564 °/min
Orbital period
95.6 mins
BSTAR
0.0017093
Loading maneuver chart data...
Computing Atmospheric mass density...
Loading historical data...
Loading historical data...
Loading historical data...
Loading historical data...
Loading historical data...
Loading historical data...
Loading historical data...

Documentation

Showing up to 5 results
|